Austin, TX

10:07 AM CST on February 19, 2018 (GMT -0600)
Austin

Weather History for KATT - May, 2013

Change the Weather History Date:

Tuesday, May 14, 2013

  Actual Average Record
Temperature  
Mean Temperature 74 °F 76 °F  
Max Temperature 87 °F 86 °F 96 °F (2003)
Min Temperature 61 °F 66 °F 49 °F (1971)
Degree Days  
Heating Degree Days 0 0  
Month to date heating degree days 12 0  
Since 1 July heating degree days 1251 1537  
Cooling Degree Days 9 11  
Month to date cooling degree days 76 136  
Year to date cooling degree days 348 388  
Growing Degree Days 24 (Base 50)    
Moisture  
Dew Point 61 °F    
Average Humidity 65    
Maximum Humidity 90    
Minimum Humidity 40    
Precipitation  
Precipitation 0.00 in 0.14 in 2.80 in (1900)
Month to date precipitation 1.32 1.81  
Year to date precipitation 8.97 10.90  
Snow  
Snow 0.00 in - - ()
Month to date snowfall 0.0  
Since 1 July snowfall T  
Snow Depth 0.00 in    
Sea Level Pressure  
Sea Level Pressure 30.12 in    
Wind  
Wind Speed 7 mph (South)    
Max Wind Speed 16 mph    
Max Gust Speed 26 mph    
Visibility 10 miles    
Events      
T = Trace of Precipitation, MM = Missing Value Source: NWS Daily Summary

Daily Weather History Graph

Daily Weather History Graph

Search for Another Location

Airport or City:

Trip Planner

Search our weather history database for the weather conditions in past years. The results will help you decide how hot, cold, wet, or windy it might be!

Date:

Astronomy

May. 14, 2013 Rise Set
Actual Time 6:37 AM CDT 8:17 PM CDT
Civil Twilight 6:11 AM CDT 8:43 PM CDT
Nautical Twilight 5:39 AM CDT 9:15 PM CDT
Astronomical Twilight 5:06 AM CDT 9:48 PM CDT
Moon 10:17 AM CDT (5/14) No Moon Set
Length of Visible Light 14h 32m
Length of Day
13h 40m
Waxing Crescent, 19% of the Moon is Illuminated
May 14
Waxing Crescent
May 17
First Quarter
May 24
Full
May 31
Last Quarter
Jun 8
New

Hourly Weather History & Observations

Time (CDT) Temp. Heat Index Dew Point Humidity Pressure Visibility Wind Dir Wind Speed Gust Speed Precip Events Conditions
12:51 AM 69.1 °F - 57.9 °F 68% 30.20 in 10.0 mi Variable 5.8 mph - N/A   Clear
1:51 AM 68.0 °F - 57.0 °F 68% 30.18 in 10.0 mi South 5.8 mph - N/A   Clear
2:51 AM 66.0 °F - 57.0 °F 73% 30.17 in 10.0 mi South 4.6 mph - N/A   Clear
3:51 AM 64.0 °F - 57.0 °F 78% 30.16 in 10.0 mi South 3.5 mph - N/A   Clear
4:51 AM 63.0 °F - 57.0 °F 81% 30.15 in 10.0 mi Calm Calm - N/A   Clear
5:51 AM 62.1 °F - 57.0 °F 84% 30.16 in 10.0 mi Calm Calm - N/A   Clear
6:51 AM 61.0 °F - 57.0 °F 87% 30.15 in 10.0 mi Calm Calm - N/A   Clear
7:51 AM 64.0 °F - 59.0 °F 84% 30.16 in 10.0 mi Calm Calm - N/A   Clear
8:51 AM 68.0 °F - 61.0 °F 78% 30.18 in 10.0 mi Variable 3.5 mph - N/A   Scattered Clouds
9:10 AM 71.1 °F - 62.1 °F 73% 30.21 in 10.0 mi SSW 5.8 mph - N/A   Mostly Cloudy
9:23 AM 71.1 °F - 62.1 °F 73% 30.21 in 10.0 mi Variable 5.8 mph - N/A   Scattered Clouds
9:51 AM 72.0 °F - 62.1 °F 71% 30.19 in 10.0 mi South 8.1 mph - N/A   Partly Cloudy
10:51 AM 75.9 °F - 60.1 °F 58% 30.19 in 10.0 mi Variable 6.9 mph - N/A   Clear
11:51 AM 80.1 °F 80.7 °F 59.0 °F 48% 30.17 in 10.0 mi South 8.1 mph 18.4 mph N/A   Clear
12:51 PM 81.0 °F 81.3 °F 59.0 °F 47% 30.15 in 10.0 mi SSW 10.4 mph - N/A   Clear
1:51 PM 84.0 °F 83.5 °F 57.9 °F 41% 30.12 in 10.0 mi North - - N/A   Clear
2:51 PM 86.0 °F 86.1 °F 61.0 °F 43% 30.10 in 10.0 mi SSW 9.2 mph - N/A   Clear
3:51 PM 86.0 °F 85.7 °F 60.1 °F 41% 30.07 in 10.0 mi SSE 12.7 mph 23.0 mph N/A   Clear
4:51 PM 86.0 °F 85.7 °F 60.1 °F 41% 30.05 in 10.0 mi South 8.1 mph 20.7 mph N/A   Clear
5:51 PM 84.9 °F 84.8 °F 60.1 °F 43% 30.03 in 10.0 mi South 8.1 mph 18.4 mph N/A   Mostly Cloudy
6:51 PM 84.0 °F 84.5 °F 62.1 °F 47% 30.00 in 10.0 mi Variable 6.9 mph 18.4 mph N/A   Mostly Cloudy
7:51 PM 81.0 °F 82.5 °F 64.0 °F 56% 29.99 in 10.0 mi SSE 13.8 mph 21.9 mph N/A   Clear
8:51 PM 79.0 °F - 64.9 °F 62% 30.01 in 10.0 mi SSE 9.2 mph 16.1 mph N/A   Overcast
9:51 PM 77.0 °F - 64.9 °F 66% 30.04 in 10.0 mi Variable 6.9 mph 18.4 mph N/A   Overcast
10:21 PM 75.9 °F - 66.0 °F 71% 30.08 in 10.0 mi SSE 12.7 mph 21.9 mph N/A   Overcast
10:51 PM 75.0 °F - 66.0 °F 73% 30.06 in 10.0 mi South 11.5 mph 18.4 mph N/A   Overcast
11:51 PM 73.9 °F - 66.0 °F 76% 30.07 in 10.0 mi Variable 6.9 mph 17.3 mph N/A   Overcast